Content
SEND FEEDBACK

Daily
Averages
Monthly
Summary
United States of America

BELLEVILLE, MICHIGAN


Home > North America > United States > Michigan
Elevation: 780 feet     Latitude: 42 14N     Longitude: 083 32W

WEATHER
 
SELECT A DAY
Number of Records: 202,959;   Date Range: 1/1/95 - 9/22/14
 
SHARE

PRINT THIS DATA

[ ← Previous Day ]
WEATHER ALMANAC - SEPTEMBER 21, 2013
[ Next Day → ]
[ °C ]   °F
Weather ElementAverageHighLow
Temperature65.9 °F72 °F (2:53 pm)59 °F (9:53 pm)
Dewpoint55.5 °F64.4 °F (2:17 am)45 °F (11:53 pm)
Humidity70.5 %88 % (2:17 am)45 % (4:53 pm)
Barometer29.74 in29.87 in (11:53 pm)29.68 in (4:53 am)
Wind Speed9.6 mph18.4 mph (12:53 pm)
Wind Gust26.5 mph (1:53 pm)
Weather ElementAverage
Visibility9.1 mi
Wind DirectionWNW (280 °)

Weather ElementTotal
Precipitation0.83 in
Cooling Degree Days0.5 (Base 65)
Growing Degree Days15.5 (Base 50)
Averaged from 33 records on September 21, 2013
WEATHER CONDITIONS BREAKOUT
WIND DIRECTION BREAKOUT
WEATHER BY HOUR - SEPTEMBER 21, 2013
[ °C ]   °F
Local TimeTemperatureDewpointHumidityBarometerVisibilityWind DirectionWind SpeedGust SpeedPrecipitationEventsConditions
12:11 AM68.0 °F62.6 °F83 %29.76 in5.0 miWNW (290°)6.9 mphRainLight Rain
12:53 AM68.0 °F63.0 °F84 %29.73 in10.0 miCalmRainLight Rain
1:53 AM66.9 °F63.0 °F87 %29.72 in6.0 miSSW (200°)4.6 mph0.14 inRainLight Rain
2:17 AM68.0 °F64.4 °F88 %29.74 in6.0 miSouth (190°)3.5 mph0.06 inRainLight Rain
2:27 AM68.0 °F64.4 °F88 %29.73 in5.0 miSSW (200°)4.6 mph0.08 inRainLight Rain
2:40 AM68.0 °F64.4 °F88 %29.74 in6.0 miSW (220°)5.8 mph0.11 inRainLight Rain
2:53 AM68.0 °F64.0 °F87 %29.70 in6.0 miSSW (200°)5.8 mph0.14 inOvercast
3:03 AM68.0 °F60.8 °F78 %29.73 in6.0 miSW (230°)4.6 mph0.02 inHaze
3:53 AM66.9 °F61.0 °F81 %29.70 in10.0 miWNW (290°)6.9 mph0.11 inRainLight Rain
4:53 AM66.0 °F60.1 °F81 %29.68 in10.0 miWNW (300°)8.1 mph0.10 inMostly Cloudy
5:53 AM64.9 °F59.0 °F81 %29.68 in10.0 miWNW (300°)9.2 mph0.06 inMostly Cloudy
6:53 AM63.0 °F57.0 °F81 %29.69 in10.0 miWNW (300°)8.1 mph0.01 inPartly Cloudy
7:53 AM63.0 °F57.0 °F81 %29.70 in10.0 miWest (270°)5.8 mphClear
8:53 AM63.0 °F57.0 °F81 %29.70 in10.0 miWNW (290°)10.4 mphScattered Clouds
9:04 AM62.6 °F57.2 °F82 %29.72 in10.0 miWNW (290°)13.8 mphMostly Cloudy
9:25 AM62.6 °F55.4 °F77 %29.73 in10.0 miWNW (290°)11.5 mphScattered Clouds
9:53 AM64.0 °F57.0 °F78 %29.71 in10.0 miWNW (290°)11.5 mphScattered Clouds
10:53 AM68.0 °F57.0 °F68 %29.71 in10.0 miWNW (300°)11.5 mphPartly Cloudy
11:53 AM68.0 °F55.9 °F65 %29.72 in10.0 miNW (310°)13.8 mphMostly Cloudy
12:02 PM66.2 °F55.4 °F68 %29.74 in10.0 miNW (320°)17.3 mph21.9 mphMostly Cloudy
12:26 PM69.8 °F55.4 °F60 %29.74 in10.0 miWNW (300°)16.1 mphScattered Clouds
12:53 PM68.0 °F54.0 °F61 %29.73 in10.0 miNNW (330°)18.4 mph25.3 mphScattered Clouds
1:53 PM70.0 °F53.1 °F55 %29.73 in10.0 miNNW (330°)12.7 mph26.5 mphScattered Clouds
2:53 PM72.0 °F53.1 °F51 %29.73 in10.0 miNNW (330°)12.7 mph17.3 mphMostly Cloudy
3:53 PM71.1 °F50.0 °F47 %29.73 in10.0 miNW (320°)12.7 mphPartly Cloudy
4:53 PM68.0 °F46.0 °F45 %29.75 in10.0 miNW (310°)13.8 mph20.7 mphPartly Cloudy
5:53 PM66.9 °F46.9 °F49 %29.77 in10.0 miNW (310°)11.5 mphMostly Cloudy
6:53 PM64.9 °F46.0 °F50 %29.79 in10.0 miNW (310°)12.7 mphOvercast
7:53 PM63.0 °F46.0 °F54 %29.80 in10.0 miNW (310°)9.2 mphOvercast
8:53 PM62.1 °F46.9 °F58 %29.83 in10.0 miNW (320°)10.4 mphOvercast
9:53 PM59.0 °F46.9 °F64 %29.85 in10.0 miNW (320°)6.9 mphMostly Cloudy
10:53 PM59.0 °F46.9 °F64 %29.86 in10.0 miNNW (330°)6.9 mphOvercast
11:53 PM59.0 °F45.0 °F60 %29.87 in10.0 miNNW (340°)8.1 mphOvercast
Hourly data recorded from KYIP, located miles away from Belleville, Michigan







STORIES FROM OUR PARTNERS